Location: Shandelee
(41.8790°N, 74.8713°W)
Time: 03:16:14
(UTC+00:00)

Cosmos 1689 Rocket - Pass Details

Date: 29 October 2020
Orbit: 360 x 375 km, 97.5° (Epoch: 23 November)

Event Time Altitude Azimuth Distance (km) Brightness Sun altitude
Exits shadow 22:55:45 - 16° (NNE) 2,157 5.6 -11.5°
Reaches altitude 10° 22:57:37 10° 21° (NNE) 1,353 4.5 -11.8°
Maximum altitude 23:00:26 54° 101° (E) 446 2.0 -12.4°
Drops below altitude 10° 23:03:14 10° 180° (S) 1,340 4.9 -12.9°
Sets 23:05:11 0° 185° (S) 2,182 6.0 -13.2°
